[[{"header":{"parameterUnit":"m.s-1","parameterCategory":1,"la1":30.2991,"la2":30.254,"lo1":-89.0895,"lo2":-89.0444,"dy":0.0017,"dx":0.0017,"nx":28,"ny":28,"refTime":"2023-10-11T03:00:00:Z","depth":0,"parameterNumber":2,"parameterNumberName":"U-component_of_WINDS"},"data":[0,0,0,0,0,0,0,0,0,0,0,0,0,0,0,0,0,0,0,0,0,0,0,0,0,0,0,0,0,0,0,0,0,0,0,0,0,0,0,0,0,0,0,0,0,0,0,0,0,0,0,0,0,0,0,0,0,0,-2.5278,-2.5277,0,-2.5254,-2.5254,-2.5254,-2.5174,-2.5172,-2.517,-2.5168,-2.5148,-2.5149,-2.515,0,0,0,0,0,0,0,0,0,0,0,0,0,-2.5256,-2.5257,-2.5278,-2.5277,-2.5277,-2.5254,-2.5254,-2.5254,-2.5174,-2.5172,-2.517,-2.5168,-2.5147,-2.5149,-2.515,0,0,0,0,0,0,0,0,0,0,0,0,0,-2.5253,-2.5257,-2.5278,-2.5235,-2.523,-2.5254,-2.5254,-2.5254,-2.5175,-2.5172,-2.5169,-2.5167,-2.5147,-2.5148,-2.515,-2.5215,0,0,-2.5155,-2.5156,0,0,0,0,0,0,0,0,-2.5253,-2.5253,-2.5241,-2.5238,-2.5233,-2.5214,-2.5239,-2.5241,-2.5175,-2.5196,-2.5168,-2.5165,-2.5172,-2.5172,-2.5173,-2.5214,-2.5213,-2.5155,-2.5156,-2.5157,-2.5158,0,0,0,0,0,0,0,-2.5253,-2.5254,-2.5269,-2.5241,-2.5236,-2.5217,-2.5214,-2.5239,-2.52,-2.5194,-2.5188,-2.5186,-2.5169,-2.5172,-2.5172,-2.5213,-2.5155,-2.5157,-2.5158,-2.5159,-2.5307,-2.531,0,0,0,0,0,0,-2.5259,-2.5255,-2.5269,-2.5268,-2.5236,-2.522,-2.5216,-2.5223,-2.5199,-2.5193,-2.5189,-2.5183,-2.517,-2.517,-2.5171,-2.5247,-2.5157,-2.5159,-2.516,-2.5304,-2.5308,-2.5311,0,0,0,0,0,0,-2.5259,-2.5261,-2.527,-2.526,-2.5259,-2.5223,-2.5232,-2.5224,-2.5226,-2.5195,-2.5188,-2.5198,-2.5168,-2.5169,-2.5205,-2.5245,-2.516,-2.5161,-2.5301,-2.5305,-2.5309,-2.5398,0,0,0,0,0,0,-2.5259,-2.5262,-2.5285,-2.5261,-2.526,-2.5304,-2.5234,-2.5226,-2.5229,-2.5221,-2.5202,-2.5196,-2.5166,-2.5203,-2.5207,-2.5246,-2.5162,-2.5297,-2.5303,-2.5308,-2.5392,-2.5405,-2.5417,0,0,0,0,0,-2.5258,-2.5312,-2.5287,-2.5289,-2.5289,-2.5306,-2.5306,-2.5269,-2.5233,-2.5257,-2.5237,-2.5197,-2.524,-2.5207,-2.5211,-2.5251,-2.5294,-2.5301,-2.5307,-2.5386,-2.5402,-2.5416,0,0,0,0,0,0,-2.5343,-2.5308,-2.528,-2.5327,-2.532,-2.5293,-2.5322,-2.5287,-2.5292,-2.5284,-2.5239,-2.5235,-2.5279,-2.5268,-2.5232,-2.5313,-2.526,-2.5268,-2.5319,-2.5334,-2.5347,-2.5349,-2.5164,0,0,0,0,0,-2.5366,-2.5383,-2.5351,-2.5396,-2.5394,-2.5359,-2.5365,-2.5337,-2.5328,-2.5325,-2.5308,-2.5302,-2.5314,-2.5323,-2.5333,-2.5389,-2.5385,-2.5419,-2.5431,-2.5442,-2.545,-2.548,-2.5496,-2.5332,-2.5332,-2.5332,0,0,-2.5416,-2.5399,-2.5412,-2.5412,-2.5404,-2.5423,-2.5357,-2.5379,-2.5393,-2.5329,-2.5362,-2.5349,-2.534,-2.5387,-2.5407,-2.538,-2.5493,-2.545,-2.5459,-2.5461,-2.5489,-2.5504,-2.5518,-2.5337,-2.5336,-2.5335,0,0,-2.5517,-2.5505,-2.5541,-2.5534,-2.5522,-2.5498,-2.5507,-2.5485,-2.5474,-2.5506,-2.5459,-2.5475,-2.5496,-2.5492,-2.5493,-2.5592,-2.5557,-2.5597,-2.5663,-2.5694,-2.5707,-2.5718,-2.5756,-2.5769,-2.5604,-2.5604,-2.5604,0,-2.5581,-2.5607,-2.5565,-2.559,-2.5593,-2.5534,-2.5572,-2.5567,-2.5559,-2.5562,-2.5531,-2.5558,-2.5547,-2.5593,-2.5618,-2.5619,-2.5629,-2.56,-2.5708,-2.5719,-2.5729,-2.5764,-2.5778,-2.5609,-2.5609,-2.5608,-2.5608,0,-2.5687,-2.5706,-2.5737,-2.573,-2.5735,-2.5767,-2.573,-2.5741,-2.5712,-2.5692,-2.5727,-2.5712,-2.5718,-2.5726,-2.5699,-2.5769,-2.5753,-2.5716,-2.5662,-2.575,-2.5783,-2.5796,-2.5617,-2.5615,-2.5613,-2.5612,0,0,-2.5842,-2.5811,-2.5823,-2.582,-2.5802,-2.5816,-2.5845,-2.585,-2.5861,-2.5857,-2.5882,-2.5902,-2.5867,-2.5868,-2.584,-2.5866,-2.5949,-2.5826,-2.5825,-2.5851,-2.6028,-2.6057,-2.6074,-2.5924,-2.5926,-2.5928,-2.6029,0,-2.594,-2.5987,-2.595,-2.6005,-2.6023,-2.5967,-2.5993,-2.5986,-2.5968,-2.5981,-2.5961,-2.5976,-2.5929,-2.5929,-2.5953,-2.5934,-2.5984,-2.5926,-2.5949,-2.595,-2.5955,-2.609,-2.6122,-2.6217,-2.6041,-2.6043,-2.6045,0,-2.606,-2.6061,-2.6118,-2.6097,-2.6103,-2.6127,-2.6129,-2.6142,-2.6132,-2.6118,-2.6119,-2.6083,-2.6112,-2.6058,-2.6098,-2.6059,-2.6066,-2.6058,-2.6061,-2.6064,-2.6005,-2.6099,-2.6247,-2.6262,-2.6064,-2.6063,-2.6061,0,-2.617,-2.6186,-2.6222,-2.622,-2.6197,-2.6215,-2.6206,-2.6194,-2.62,-2.6202,-2.6205,-2.6211,-2.6215,-2.6221,-2.6188,-2.6151,-2.6233,-2.6176,-2.6224,-2.6225,-2.6245,-2.6245,-2.6399,-2.6246,-2.6246,-2.6246,-2.6245,0,-2.6284,-2.6322,-2.6271,-2.6294,-2.6334,-2.6291,-2.6333,-2.6319,-2.6308,-2.6328,-2.628,-2.63,-2.6255,-2.6271,-2.6246,-2.6284,-2.6285,-2.6276,-2.6269,-2.6281,-2.6283,-2.6287,-2.628,-2.625,-2.6249,-2.6248,-2.6247,0,-2.6415,-2.6382,-2.6418,-2.6393,-2.6387,-2.6419,-2.6397,-2.6418,-2.6396,-2.6422,-2.6425,-2.6392,-2.6408,-2.6376,-2.6387,-2.637,-2.6425,-2.6407,-2.6428,-2.6424,-2.6474,-2.6471,-2.6638,-2.6659,-2.6491,-2.6493,-2.6494,0,-2.6491,-2.6518,-2.6495,-2.6505,-2.6498,-2.6514,-2.652,-2.6478,-2.6486,-2.6478,-2.65,-2.6512,-2.6519,-2.6548,-2.6526,-2.6535,-2.6518,-2.6576,-2.6519,-2.6531,-2.6521,-2.6521,-2.6525,-2.6588,-2.659,-2.6592,-2.6593,0,-2.663,-2.6613,-2.6622,-2.6626,-2.6634,-2.6635,-2.6633,-2.6644,-2.66,-2.6612,-2.6627,-2.6633,-2.6645,-2.6658,-2.6662,-2.6653,-2.6618,-2.6611,-2.6623,-2.6637,-2.6649,-2.6646,-2.6463,-2.6608,-2.6606,-2.6605,-2.6605,-2.6604,-2.6738,-2.676,-2.6748,-2.676,-2.6754,-2.6753,-2.6772,-2.6752,-2.6764,-2.677,-2.6744,-2.6766,-2.6757,-2.6758,-2.6754,-2.6771,-2.6746,-2.6762,-2.6767,-2.6773,-2.6782,-2.6645,-2.6772,-2.6771,-2.6771,-2.677,-2.677,0,-2.6877,-2.6866,-2.6877,-2.6876,-2.6886,-2.6849,-2.6845,-2.6856,-2.6875,-2.6869,-2.6877,-2.6896,-2.6908,-2.6887,-2.6896,-2.6914,-2.6898,-2.6918,-2.6918,-2.6917,-2.6803,-2.6793,-2.6932,-2.6931,-2.6931,-2.6931,-2.6931,-2.6931,-2.695,-2.6987,-2.6968,-2.7001,-2.699,-2.701,-2.7012,-2.7011,-2.7006,-2.7029,-2.7039,-2.7024,-2.7012,-2.702,-2.7031,-2.7024,-2.7031,-2.7058,-2.7046,-2.6941,-2.6925,-2.691,-2.69,-2.7059,-2.7059,-2.7159,-2.716,-2.7161]},{"header":{"parameterUnit":"m.s-1","parameterCategory":1,"la1":30.2991,"la2":30.254,"lo1":-89.0895,"lo2":-89.0444,"dy":0.0017,"dx":0.0017,"nx":28,"ny":28,"refTime":"2023-10-11T03:00:00:Z","depth":0,"parameterNumber":3,"parameterNumberName":"V-component_of_WINDS"},"data":[0,0,0,0,0,0,0,0,0,0,0,0,0,0,0,0,0,0,0,0,0,0,0,0,0,0,0,0,0,0,0,0,0,0,0,0,0,0,0,0,0,0,0,0,0,0,0,0,0,0,0,0,0,0,0,0,0,0,-2.1027,-2.1027,0,-2.1042,-2.1042,-2.1042,-2.1051,-2.1051,-2.1051,-2.1051,-2.1064,-2.1065,-2.1065,0,0,0,0,0,0,0,0,0,0,0,0,0,-2.1006,-2.1006,-2.1027,-2.1027,-2.1028,-2.1042,-2.1042,-2.1042,-2.1051,-2.1051,-2.1051,-2.1051,-2.1064,-2.1065,-2.1065,0,0,0,0,0,0,0,0,0,0,0,0,0,-2.1017,-2.1006,-2.1027,-2.1034,-2.1034,-2.1042,-2.1042,-2.1042,-2.1051,-2.1051,-2.1051,-2.1051,-2.1064,-2.1065,-2.1065,-2.1066,0,0,-2.1066,-2.1067,0,0,0,0,0,0,0,0,-2.1016,-2.1018,-2.1033,-2.1033,-2.1034,-2.1045,-2.1039,-2.105,-2.1051,-2.1045,-2.1051,-2.1051,-2.1058,-2.1059,-2.1061,-2.1067,-2.1068,-2.1066,-2.1067,-2.1067,-2.1067,0,0,0,0,0,0,0,-2.1016,-2.1017,-2.1033,-2.1033,-2.1034,-2.1036,-2.1037,-2.1041,-2.105,-2.1045,-2.1046,-2.1048,-2.1058,-2.1061,-2.1062,-2.1068,-2.1066,-2.1067,-2.1067,-2.1067,-2.1076,-2.1076,0,0,0,0,0,0,-2.1014,-2.1017,-2.1032,-2.1033,-2.1025,-2.1036,-2.1038,-2.1041,-2.105,-2.1052,-2.1048,-2.1048,-2.106,-2.1061,-2.1062,-2.1065,-2.1067,-2.1067,-2.1068,-2.1076,-2.1076,-2.1076,0,0,0,0,0,0,-2.1013,-2.1015,-2.1032,-2.1025,-2.1027,-2.1036,-2.104,-2.1041,-2.1044,-2.1052,-2.1054,-2.1049,-2.106,-2.1061,-2.1066,-2.1065,-2.1068,-2.1068,-2.1076,-2.1076,-2.1076,-2.107,0,0,0,0,0,0,-2.1013,-2.1015,-2.1016,-2.1025,-2.1028,-2.1035,-2.104,-2.1042,-2.1045,-2.1046,-2.1054,-2.1055,-2.106,-2.1065,-2.1066,-2.1066,-2.1068,-2.1076,-2.1076,-2.1076,-2.107,-2.107,-2.107,0,0,0,0,0,-2.1012,-2.1013,-2.1016,-2.1018,-2.1029,-2.1035,-2.1037,-2.1043,-2.1045,-2.1046,-2.1051,-2.1055,-2.1065,-2.1065,-2.1067,-2.1067,-2.1076,-2.1076,-2.1076,-2.1071,-2.107,-2.107,0,0,0,0,0,0,-2.1003,-2.1014,-2.1018,-2.1022,-2.1028,-2.1037,-2.1038,-2.1042,-2.1047,-2.1048,-2.1055,-2.1056,-2.106,-2.1064,-2.1064,-2.1069,-2.1071,-2.1071,-2.1067,-2.1066,-2.1066,-2.1065,-2.1069,0,0,0,0,0,-2.1001,-2.1006,-2.1016,-2.1018,-2.1021,-2.1029,-2.1032,-2.1037,-2.1043,-2.1045,-2.1051,-2.1056,-2.1061,-2.1063,-2.1068,-2.1071,-2.1073,-2.1072,-2.1071,-2.1071,-2.1071,-2.1073,-2.1073,-2.1076,-2.1076,-2.1076,0,0,-2.0998,-2.1005,-2.1007,-2.1017,-2.1022,-2.1026,-2.1031,-2.1035,-2.1039,-2.1046,-2.105,-2.1055,-2.1061,-2.1065,-2.1067,-2.1068,-2.1071,-2.1071,-2.107,-2.1071,-2.1073,-2.1073,-2.1073,-2.1076,-2.1076,-2.1076,0,0,-2.0995,-2.1,-2.1004,-2.1009,-2.1017,-2.1022,-2.1023,-2.1032,-2.1035,-2.104,-2.1046,-2.105,-2.1057,-2.1062,-2.1065,-2.1064,-2.1068,-2.1066,-2.1063,-2.1065,-2.1065,-2.1065,-2.1065,-2.1065,-2.1066,-2.1066,-2.1066,0,-2.099,-2.0997,-2.1005,-2.1009,-2.1013,-2.102,-2.1024,-2.1028,-2.1037,-2.1039,-2.1041,-2.1051,-2.1056,-2.1061,-2.1061,-2.1063,-2.1065,-2.1065,-2.1065,-2.1065,-2.1065,-2.1065,-2.1065,-2.1065,-2.1065,-2.1065,-2.1065,0,-2.0991,-2.0996,-2.0998,-2.1007,-2.1011,-2.1015,-2.1023,-2.1026,-2.103,-2.1035,-2.104,-2.1047,-2.1053,-2.1054,-2.1058,-2.106,-2.1061,-2.1063,-2.1066,-2.1064,-2.1064,-2.1064,-2.1065,-2.1065,-2.1065,-2.1065,0,0,-2.0982,-2.0996,-2.0997,-2.1001,-2.1011,-2.1015,-2.1019,-2.1026,-2.1029,-2.1034,-2.1038,-2.1045,-2.1047,-2.1051,-2.1056,-2.1057,-2.1057,-2.106,-2.106,-2.1059,-2.106,-2.1059,-2.1059,-2.106,-2.106,-2.106,-2.106,0,-2.098,-2.0989,-2.0996,-2.1002,-2.1007,-2.1014,-2.1018,-2.1024,-2.1029,-2.1034,-2.1039,-2.1044,-2.1047,-2.1049,-2.1051,-2.1057,-2.1058,-2.1057,-2.1063,-2.1063,-2.1062,-2.1059,-2.1057,-2.1057,-2.106,-2.106,-2.106,0,-2.098,-2.0987,-2.0993,-2.1003,-2.1005,-2.1009,-2.1016,-2.102,-2.1027,-2.1031,-2.1036,-2.104,-2.1045,-2.1047,-2.1053,-2.1053,-2.1055,-2.1059,-2.1059,-2.106,-2.1062,-2.106,-2.1057,-2.1057,-2.106,-2.106,-2.106,0,-2.0973,-2.0984,-2.099,-2.0993,-2.1005,-2.1007,-2.1012,-2.1019,-2.1023,-2.1029,-2.1032,-2.1038,-2.1041,-2.1046,-2.1052,-2.1053,-2.1058,-2.106,-2.1061,-2.1061,-2.1062,-2.1061,-2.1059,-2.1063,-2.1063,-2.1063,-2.1063,0,-2.0971,-2.0975,-2.0987,-2.099,-2.0995,-2.1003,-2.1007,-2.1012,-2.1019,-2.1023,-2.1029,-2.1033,-2.1041,-2.1046,-2.105,-2.1055,-2.1056,-2.1059,-2.1061,-2.1059,-2.1059,-2.1061,-2.1061,-2.1063,-2.1063,-2.1063,-2.1063,0,-2.0965,-2.0973,-2.098,-2.099,-2.0993,-2.0996,-2.1005,-2.1008,-2.1014,-2.1019,-2.1021,-2.103,-2.1036,-2.1042,-2.105,-2.1053,-2.1058,-2.1059,-2.1056,-2.1056,-2.1057,-2.1057,-2.1057,-2.1057,-2.106,-2.106,-2.106,0,-2.0963,-2.0967,-2.0978,-2.0982,-2.0987,-2.0993,-2.0997,-2.1005,-2.1009,-2.1018,-2.102,-2.1027,-2.1032,-2.1041,-2.1048,-2.1054,-2.1056,-2.1056,-2.1057,-2.1055,-2.1056,-2.1056,-2.1057,-2.1055,-2.1055,-2.1055,-2.1055,0,-2.096,-2.0964,-2.097,-2.0978,-2.0983,-2.099,-2.0996,-2.0999,-2.1008,-2.1012,-2.1019,-2.1024,-2.1032,-2.1038,-2.1045,-2.105,-2.1054,-2.1055,-2.1055,-2.1054,-2.1051,-2.1053,-2.1055,-2.1055,-2.1055,-2.1055,-2.1055,-2.1055,-2.0956,-2.096,-2.0969,-2.0976,-2.0982,-2.0988,-2.0992,-2.0998,-2.1004,-2.1012,-2.1016,-2.1023,-2.103,-2.104,-2.1044,-2.1049,-2.1051,-2.1051,-2.1052,-2.1052,-2.1052,-2.1051,-2.1051,-2.1051,-2.1051,-2.1051,-2.1051,0,-2.0953,-2.0959,-2.0966,-2.0976,-2.0981,-2.0985,-2.0993,-2.0997,-2.1003,-2.101,-2.1016,-2.1023,-2.103,-2.1037,-2.1044,-2.1046,-2.1048,-2.1048,-2.1048,-2.1049,-2.105,-2.1049,-2.1046,-2.1046,-2.1046,-2.1046,-2.1046,-2.1046,-2.0952,-2.0959,-2.0964,-2.0974,-2.098,-2.0987,-2.0991,-2.0997,-2.1002,-2.1011,-2.1017,-2.1021,-2.1028,-2.1036,-2.1042,-2.1044,-2.1046,-2.1045,-2.1047,-2.1048,-2.1049,-2.1049,-2.1048,-2.1045,-2.1045,-2.1046,-2.1046,-2.1046]}]]